{"data":{"norad_id":57715,"intl_designator":"2023-129T","name":"STARLINK-30300","alt_names":[],"object_type":"PAYLOAD","status":"ACTIVE","operator":null,"country":"US","launch_date":"2023-08-27","launch_site_code":"AFETR","launch_vehicle":null,"mission":null,"orbit_class":"UNKNOWN","rcs_meters":null,"size_class":null,"mass_kg":null,"dimensions":null,"purposes":["comms"],"wikipedia_slug":null,"has_3d_model":false,"image_url":null,"decayed_at":null,"tle_current":{"epoch":"2026-05-25T03:16:55.034112Z","epoch_age_seconds":70012,"freshness":"FRESH","line1":"1 57715U 23129T   26145.13674808 -.00000741  00000+0 -17397-4 0  9991","line2":"2 57715  43.0022  46.2146 0001037 245.4844 114.5900 15.27596399152377","mean_motion":15.27596399,"eccentricity":0.0001037,"inclination_deg":43.0022,"raan_deg":46.2146,"arg_perigee_deg":245.4844,"mean_anomaly_deg":114.59,"bstar":-1.7397e-5,"rev_number":15237,"period_min":94.265736744513,"perigee_km":482.28849206736,"apogee_km":483.7114918795,"semimajor_km":6861.1369919734,"source":"CELESTRAK","updated_at":"2026-05-25T13:38:18.374279Z"}}}